Montgomery, NY

12:08 AM EDT on July 25, 2017 (GMT -0400)
Orange County

Weather History for KMGJ - August, 2014

Change the Weather History Date:

Sunday, August 3, 2014

  Actual Average (KSWF) Record (KSWF)
Temperature  
Mean Temperature 70 °F -  
Max Temperature 79 °F 80 °F 95 °F (1975)
Min Temperature 61 °F 60 °F 33 °F (1996)
Cooling Degree Days 5    
Growing Degree Days 20 (Base 50)    
Moisture  
Dew Point 62 °F    
Average Humidity 80    
Maximum Humidity 97    
Minimum Humidity 50    
Precipitation  
Precipitation 0.02 in - - ()
Sea Level Pressure  
Sea Level Pressure 30.09 in    
Wind  
Wind Speed 1 mph (SE)    
Max Wind Speed 8 mph    
Max Gust Speed -    
Visibility 8 miles    
Events Rain    
Averages and records for this station are not official NWS values.
T = Trace of Precipitation, MM = Missing Value Source: NWS Daily Summary

Daily Weather History Graph

Daily Weather History Graph

Search for Another Location

Airport or City:

Trip Planner

Search our weather history database for the weather conditions in past years. The results will help you decide how hot, cold, wet, or windy it might be!

Date:

Astronomy

Aug. 03, 2014 Rise Set
Actual Time 5:53 AM EDT 8:12 PM EDT
Civil Twilight 5:22 AM EDT 8:43 PM EDT
Nautical Twilight 4:44 AM EDT 9:21 PM EDT
Astronomical Twilight 4:01 AM EDT 10:03 PM EDT
Moon 1:17 PM EDT (8/3) No Moon Set
Length of Visible Light 15h 20m
Length of Day
14h 18m
Waxing Crescent, 46% of the Moon is Illuminated
Aug 3
Waxing Crescent
Aug 3
First Quarter
Aug 10
Full
Aug 17
Last Quarter
Aug 25
New

Hourly Weather History & Observations

Time (EDT) Temp. Dew Point Humidity Pressure Visibility Wind Dir Wind Speed Gust Speed Precip Events Conditions
12:54 AM 62.1 °F 60.1 °F 93% 30.12 in 3.0 mi Calm Calm - N/A   Partly Cloudy
1:02 AM 61.0 °F 59.0 °F 93% 30.12 in 2.5 mi Calm Calm - N/A   Partly Cloudy
1:09 AM 61.0 °F 59.0 °F 93% 30.12 in 9.0 mi Calm Calm - N/A   Partly Cloudy
1:54 AM 61.0 °F 59.0 °F 93% 30.12 in 7.0 mi Calm Calm - N/A   Partly Cloudy
2:54 AM 63.0 °F 61.0 °F 93% 30.12 in 8.0 mi Calm Calm - N/A   Scattered Clouds
4:54 AM 63.0 °F 61.0 °F 93% 30.12 in 7.0 mi Calm Calm - N/A   Overcast
5:06 AM 63.0 °F 61.0 °F 93% 30.12 in 7.0 mi Calm Calm - N/A   Mostly Cloudy
5:54 AM 64.0 °F 62.1 °F 93% 30.10 in 5.0 mi Calm Calm - 0.01 in Rain Light Rain
6:19 AM 63.0 °F 62.1 °F 97% 30.13 in 6.0 mi Calm Calm - 0.01 in Rain Light Rain
6:54 AM 64.0 °F 62.1 °F 93% 30.13 in 5.0 mi SSE 3.5 mph - 0.01 in   Overcast
7:54 AM 64.9 °F 63.0 °F 93% 30.12 in 5.0 mi Calm Calm - N/A   Scattered Clouds
8:20 AM 66.0 °F 63.0 °F 90% 30.12 in 5.0 mi Calm Calm - N/A   Scattered Clouds
8:38 AM 66.9 °F 64.0 °F 90% 30.12 in 5.0 mi Calm Calm - N/A   Mostly Cloudy
8:54 AM 66.9 °F 64.0 °F 90% 30.11 in 6.0 mi Calm Calm - N/A   Overcast
9:54 AM 68.0 °F 63.0 °F 84% 30.11 in 8.0 mi Calm Calm - N/A   Overcast
10:05 AM 69.1 °F 64.0 °F 84% 30.12 in 8.0 mi Calm Calm - N/A   Overcast
10:54 AM 71.1 °F 64.0 °F 78% 30.12 in 10.0 mi SE 3.5 mph - N/A   Mostly Cloudy
11:13 AM 72.0 °F 64.0 °F 76% 30.12 in 10.0 mi Calm Calm - N/A   Scattered Clouds
11:54 AM 73.9 °F 63.0 °F 68% 30.11 in 10.0 mi Calm Calm - N/A   Mostly Cloudy
12:12 PM 73.9 °F 62.1 °F 66% 30.11 in 10.0 mi Calm Calm - N/A   Mostly Cloudy
12:22 PM 75.0 °F 62.1 °F 64% 30.10 in 10.0 mi ENE 4.6 mph - N/A   Scattered Clouds
12:54 PM 75.9 °F 59.0 °F 56% 30.09 in 10.0 mi SE 5.8 mph - N/A   Mostly Cloudy
1:54 PM 79.0 °F 59.0 °F 50% 30.07 in 10.0 mi SSE 6.9 mph - N/A   Mostly Cloudy
2:54 PM 79.0 °F 62.1 °F 56% 30.06 in 10.0 mi East 3.5 mph - N/A   Overcast
3:54 PM 77.0 °F 61.0 °F 58% 30.05 in 10.0 mi Calm Calm - N/A   Overcast
4:54 PM 78.1 °F 62.1 °F 58% 30.03 in 10.0 mi SE 6.9 mph - N/A   Mostly Cloudy
5:54 PM 75.9 °F 64.0 °F 67% 30.03 in 10.0 mi South 8.1 mph - N/A   Overcast
6:54 PM 75.9 °F 64.0 °F 67% 30.02 in 10.0 mi SSE 6.9 mph - N/A   Mostly Cloudy
7:54 PM 73.0 °F 64.0 °F 73% 30.03 in 10.0 mi SSE 5.8 mph - N/A   Mostly Cloudy
8:54 PM 71.1 °F 64.0 °F 78% 30.05 in 10.0 mi SW 3.5 mph - N/A   Overcast
10:54 PM 66.9 °F 64.0 °F 90% 30.06 in 10.0 mi Calm Calm - N/A   Mostly Cloudy
11:54 PM 66.9 °F 63.0 °F 87% 30.04 in 10.0 mi Calm Calm - N/A   Mostly Cloudy